RH
21 14 12 13 12 12 14 14 18 16 13 12 14 14 12 16 29 45 46 47 56 55 56 46 44 63 71 70 65 53 51 61 66 61 68 60 64 70 82 85 86 95 83
17 14 13 14 12 11 10 11 11 11 11 11 11 11 12 11 15 11 16 33 57 54 44 42 47 47 70 78 77 78 77 78 78 76 62 54 62 77 74 87 98 92 96
16 15 12 12 12 13 12 12 12 10 9 9 11 11 10 12 12 12 13 14 24 39 30 37 43 35 48 66 69 64 62 64 65 61 56 56 60 76 77 79 80 76 90
16 15 15 13 11 11 11 12 11 10 8 7 10 10 11 12 13 12 12 13 13 12 17 28 44 62 69 75 72 61 50 36 40 43 59 64 59 63 64 78 77 70 74
17 16 15 13 12 11 11 11 11 10 9 7 8 10 10 11 12 11 11 12 12 14 15 20 47 55 42 58 68 58 45 27 27 39 47 46 55 62 63 63 79 74 67
16 15 14 13 12 12 11 10 9 9 8 7 7 9 9 10 11 14 14 13 14 16 14 15 24 42 44 47 52 55 60 65 59 58 61 55 57 61 72 67 68 76 74
11 10 10 9 8 7 7 7 7 8 8 7 7 9 10 11 12 15 17 17 18 19 20 20 18 19 32 36 44 56 61 63 69 75 73 75 68 70 78 78 80 76 88
12 11 10 9 8 6 5 5 5 6 7 8 10 11 12 13 15 17 17 18 19 21 20 18 17 15 14 30 36 45 51 61 68 70 76 76 79 79 78 80 84 74 87
12 12 11 10 9 8 7 7 7 7 9 11 11 12 14 16 17 18 19 20 19 18 16 14 14 15 16 18 24 42 53 60 68 68 88 78 82 84 86 95 84 69 84
15 13 12 11 10 9 8 10 10 11 12 12 13 14 16 18 19 19 18 16 15 14 14 13 13 13 16 18 22 26 41 62 71 82 89 87 87 73 86 94 84 92 87
19 16 13 11 11 12 14 15 16 17 16 16 15 13 12 11 10 10 11 12 12 13 14 15 16 17 18 20 22 25 28 30 31 42 51 57 97 56 46 88 98 80 70
24 22 19 17 16 17 18 18 16 14 11 10 10 10 9 10 10 11 12 14 18 24 27 33 35 33 36 41 41 46 42 36 34 33 40 37 35 87 59 97 62 67 99
24 22 20 21 22 19 15 12 11 11 10 10 11 12 13 15 16 14 15 21 26 30 37 44 55 58 60 69 74 84 76 61 57 55 59 54 38 59 70 45 50 99 98
28 26 23 18 13 12 12 11 10 12 13 15 14 10 9 9 9 10 12 19 28 38 37 39 40 42 41 50 85 86 88 92 82 72 80 73 45 60 66 66 84 100 100
17 15 13 13 13 11 11 14 16 20 16 11 9 9 7 10 12 13 14 13 46 40 26 36 57 57 56 44 55 79 98 98 95 86 85 82 70 89 89 100 98 100 96
16 15 13 12 15 16 18 23 23 15 12 11 12 10 11 12 15 18 16 14 16 20 40 64 59 84 67 64 58 97 99 99 100 100 89 100 100 100 100 100 96 100 98
12 11 18 26 22 19 27 24 19 19 15 14 14 15 22 19 23 23 28 26 38 43 45 66 79 99 99 94 100 100 96 100 99 100 83 80 92 96 96 100 100 98 92
18 36 36 32 28 27 27 26 21 19 22 19 21 20 28 26 28 29 38 44 45 41 59 92 89 92 95 99 89 93 99 98 98 93 84 69 84 100 99 100 99 98 97
46 48 40 30 31 32 33 30 27 26 30 31 28 26 31 29 32 38 35 41 45 49 59 86 95 93 89 96 64 89 96 100 97 100 100 99 100 100 100 96 83 64 44
52 46 45 38 40 42 43 37 40 36 36 31 36 40 39 43 41 39 36 44 48 65 77 92 98 94 96 96 99 97 100 100 99 98 100 100 95 86 71 52 41 35 30
55 52 53 45 40 42 43 48 48 50 49 48 44 47 50 46 53 54 59 64 70 77 87 96 98 98 99 100 100 100 100 100 97 90 82 69 58 47 38 36 32 24 18
61 53 46 42 43 54 63 62 55 54 54 51 49 58 57 58 58 62 65 66 73 77 86 92 94 97 98 98 93 81 67 62 62 59 52 44 41 40 36 30 24 16 10
56 44 48 54 56 55 55 60 50 48 44 61 74 70 70 62 57 62 66 71 75 75 72 69 68 67 64 62 60 58 57 57 54 49 45 46 44 38 29 18 12 9 5
48 41 55 63 56 52 50 46 46 54 54 75 81 76 59 56 60 60 65 67 71 76 70 66 64 62 60 58 56 55 56 52 50 51 50 46 38 22 13 10 7 4 8
48 55 70 73 65 62 60 59 62 62 67 69 66 57 62 69 72 72 70 68 74 73 70 65 60 56 52 52 53 56 58 56 56 53 44 37 19 15 9 5 6 11 12
67 64 76 87 86 75 72 73 77 70 57 52 52 65 74 76 73 71 73 75 72 70 63 57 54 54 53 57 61 63 63 61 55 46 36 19 13 8 5 7 12 13 14
Wind_Speed
43 41 42 42 43 42 40 39 40 40 42 41 41 41 39 39 39 39 41 39 38 38 38 37 37 36 35 35 34 33 32 32 32 31 31 33 34 34 34 36 36 39 38
45 43 43 42 41 41 40 38 38 40 41 40 41 42 42 41 41 41 42 40 40 41 43 42 41 40 39 38 37 35 35 33 34 34 35 34 35 34 36 35 36 37 38
44 43 43 43 42 40 39 37 37 37 38 38 39 40 43 42 42 42 42 42 44 44 46 45 44 43 43 40 40 38 37 37 37 38 38 38 37 38 38 39 38 39 39
45 44 43 41 41 41 40 39 38 38 38 41 42 42 43 43 43 45 46 46 46 46 46 46 45 44 45 43 42 42 40 40 40 42 42 41 40 42 43 42 43 42 43
44 45 44 43 42 42 42 42 41 40 39 40 41 43 44 44 44 45 46 46 47 49 49 49 48 46 45 44 45 43 44 45 44 45 45 45 45 46 47 47 47 47 47
43 44 44 44 44 44 44 43 43 42 41 41 43 44 46 46 46 43 44 45 49 51 50 52 48 46 45 44 44 45 47 48 48 49 48 48 48 50 50 52 51 50 51
42 42 42 42 42 42 42 42 42 43 43 43 43 44 45 45 45 44 44 46 47 48 51 53 53 48 48 49 50 49 50 51 52 52 51 51 52 52 53 54 53 52 57
41 41 40 39 39 39 39 40 41 42 42 42 42 42 42 42 43 45 47 47 47 49 52 53 54 54 54 54 55 55 55 56 55 55 56 55 54 54 54 56 55 55 56
41 40 40 39 39 39 38 37 37 38 38 39 39 39 40 41 42 44 47 49 51 52 55 57 58 59 59 60 61 59 58 59 56 61 51 57 58 58 55 52 55 57 61
37 38 39 39 38 36 35 34 33 33 34 35 36 38 40 42 45 48 50 53 55 58 61 63 64 64 65 64 62 61 60 59 56 58 60 63 64 60 59 56 58 57 66
35 34 33 32 31 32 31 30 30 31 32 34 35 38 40 43 47 51 55 59 62 65 67 69 69 69 68 65 63 61 59 58 57 58 59 57 51 65 59 57 58 55 58
31 30 31 31 29 27 27 28 28 30 31 33 36 40 44 49 52 55 58 61 62 63 63 63 63 63 61 59 56 53 52 52 53 55 57 57 60 59 62 57 55 51 57
29 30 29 29 27 27 26 27 28 30 32 35 37 39 41 44 46 49 52 56 59 61 62 63 64 64 64 62 58 52 50 48 48 50 53 53 54 53 53 57 56 53 54
31 28 28 26 25 25 25 27 29 30 30 30 31 30 29 30 31 35 45 51 54 52 52 51 52 54 55 55 53 52 50 47 47 48 49 49 50 53 54 52 52 53 52
25 24 25 24 25 25 26 26 24 23 24 23 18 16 16 22 27 33 41 38 40 37 39 44 46 44 42 41 42 44 44 44 42 42 44 46 49 51 48 47 47 54 56
23 24 24 24 24 23 23 21 21 19 17 12 15 15 20 23 24 30 30 32 33 36 39 36 36 36 28 24 27 32 29 39 38 35 37 41 42 43 45 48 53 56 55
21 23 22 22 23 23 22 20 18 16 19 15 17 16 18 19 22 24 24 26 28 27 24 26 23 14 25 22 32 26 32 27 28 30 34 38 38 38 42 45 47 47 51
20 19 21 22 23 22 21 19 17 17 15 15 17 17 17 17 19 22 21 19 20 21 19 20 13 12 18 23 28 22 30 28 29 33 36 38 38 39 41 43 47 50 52
17 16 15 16 16 19 18 16 16 17 15 15 12 15 14 13 16 18 19 16 14 12 16 14 11 9 11 15 21 26 26 27 27 28 31 31 35 39 44 48 49 50 52
16 13 10 12 16 19 14 14 15 14 15 16 14 13 12 13 15 14 12 13 13 9 13 10 10 5 1 6 16 14 18 19 22 25 30 34 38 41 44 46 47 50 54
19 15 12 12 14 17 19 18 18 16 17 16 18 15 13 14 19 14 13 11 8 7 7 8 8 6 5 7 10 15 19 23 27 30 33 36 38 41 43 46 50 54 59
16 17 17 14 13 14 16 17 18 17 16 17 19 15 14 18 17 13 10 8 8 8 9 9 9 10 12 14 17 20 23 26 29 32 34 36 39 42 46 50 55 60 64
10 10 12 10 11 12 13 15 15 14 15 13 13 12 16 15 11 8 7 6 7 10 12 14 16 17 18 20 22 24 26 29 31 33 36 39 42 46 50 54 59 64 68
12 13 13 11 11 11 12 13 14 15 14 10 12 13 10 7 7 11 12 13 13 13 15 16 17 18 20 22 24 25 27 29 32 36 39 42 45 47 52 58 62 62 46
14 14 13 12 10 10 12 12 14 14 10 9 10 8 7 10 13 13 14 13 14 16 17 17 19 21 23 25 26 28 29 32 35 38 41 42 43 49 56 57 52 35 37
13 14 15 15 14 12 11 12 13 11 9 8 7 9 12 13 15 15 14 17 18 18 18 19 21 23 25 26 27 29 31 34 36 39 40 40 46 50 53 45 37 34 28
Wind_Direction
232 226 224 225 229 232 237 242 245 249 253 258 261 260 261 261 263 264 265 265 264 265 266 268 269 271 271 270 271 274 275 277 281 284 288 288 291 292 293 292 293 295 290
233 228 226 232 234 237 240 244 248 251 258 261 264 265 262 263 265 266 267 268 265 265 265 265 266 267 267 268 270 273 275 278 280 280 284 288 288 289 288 292 290 293 289
236 236 234 231 236 240 244 246 248 249 252 257 258 260 263 265 267 268 265 263 261 261 264 265 266 268 266 265 267 272 274 275 277 282 282 286 286 285 290 287 290 292 289
239 240 242 244 243 245 248 250 251 251 251 250 252 254 256 259 264 265 264 263 262 263 263 266 264 263 265 265 267 269 272 273 276 277 280 280 282 280 284 283 285 287 286
238 243 247 249 251 252 254 255 255 254 254 255 254 256 259 262 261 260 263 264 264 264 265 264 263 262 264 262 262 266 268 269 271 274 277 279 280 280 280 280 280 281 284
239 243 246 250 252 253 254 256 257 257 256 256 256 257 259 260 262 260 261 262 260 262 268 269 265 262 262 261 261 262 264 269 273 274 277 276 277 278 276 279 280 282 283
238 241 246 248 251 254 254 254 255 256 256 255 256 259 260 262 264 265 264 262 260 259 259 260 263 261 262 264 265 266 268 269 272 273 274 273 275 276 276 279 281 283 288
241 243 245 248 250 252 253 254 254 255 257 258 259 261 263 265 267 268 267 266 262 259 257 258 260 262 262 263 265 268 269 270 271 273 272 273 274 276 279 279 281 282 280
242 243 245 247 250 252 254 253 254 255 257 260 263 265 266 266 266 266 267 267 265 263 260 258 258 260 261 263 265 267 268 270 270 275 268 278 276 277 280 272 277 283 281
236 237 240 243 247 249 252 254 257 259 261 263 265 266 268 269 270 270 270 269 268 267 266 265 265 264 264 264 264 265 266 267 267 261 268 272 270 279 280 278 274 275 277
229 231 235 239 241 245 249 254 257 260 263 265 268 270 271 273 274 275 275 275 273 271 270 270 269 270 270 270 269 267 266 265 265 265 268 277 282 275 280 280 277 283 285
229 232 236 239 242 246 251 256 259 262 265 270 276 280 281 281 281 281 280 279 278 276 274 273 272 271 269 268 267 266 264 262 262 261 262 260 265 271 276 277 278 277 280
229 231 234 239 245 248 251 256 261 269 275 278 278 279 281 285 287 288 287 284 281 277 274 271 269 268 268 266 264 264 262 261 261 262 263 266 266 268 270 275 276 275 281
228 232 237 240 243 247 254 263 268 270 272 277 278 283 288 290 292 300 297 289 285 283 279 277 273 269 266 265 262 260 261 261 262 263 265 266 267 268 273 276 277 281 287
227 231 236 243 250 255 258 258 260 267 266 264 262 275 297 303 298 310 306 301 291 285 285 284 269 265 261 260 259 257 257 259 262 267 270 267 267 270 273 278 280 284 284
236 241 246 250 253 252 254 255 261 253 249 255 272 285 292 301 306 314 307 302 291 283 292 292 272 258 261 259 261 259 254 262 260 265 271 275 273 273 274 274 278 282 284
240 244 245 249 253 250 245 248 250 253 249 264 285 287 291 304 307 308 309 305 306 297 298 301 269 246 251 252 257 249 249 255 269 272 275 275 277 282 281 283 288 288 286
239 243 248 250 248 238 245 246 246 257 266 268 275 285 305 294 314 313 328 326 303 310 302 289 296 267 246 247 263 261 255 260 265 269 273 276 276 286 290 290 286 289 293
232 230 239 248 245 237 241 251 245 252 261 268 288 299 311 309 321 322 322 336 354 302 294 296 277 278 275 262 253 262 266 264 269 280 281 280 285 287 286 294 302 304 303
220 219 248 262 241 236 243 252 242 245 249 257 290 291 304 315 324 325 324 330 346 355 17 357 299 272 254 274 251 277 279 286 294 291 290 290 294 298 299 301 302 302 302
222 231 262 266 239 243 257 254 243 251 255 278 277 281 284 297 315 304 307 325 341 18 13 358 0 2 335 308 290 290 292 290 293 297 299 299 300 301 303 304 304 303 303
235 247 269 269 259 251 248 243 257 271 278 277 278 263 272 294 301 297 303 317 321 325 328 331 334 329 318 306 297 295 299 304 305 304 303 304 306 308 308 307 307 307 306
250 263 266 263 257 257 259 253 262 268 280 277 261 253 281 294 286 291 295 305 312 318 328 330 322 315 313 314 316 314 312 309 307 307 308 310 310 309 311 311 311 308 307
256 263 257 247 247 251 257 263 268 272 268 257 263 270 269 261 285 296 298 300 303 311 314 315 318 320 320 319 317 316 313 310 310 310 310 312 313 315 314 316 314 312 314
252 251 243 245 252 260 270 267 267 263 250 238 238 235 255 284 293 300 305 305 305 310 316 321 324 325 323 320 317 315 312 310 311 313 313 314 317 317 322 320 318 318 318
250 247 242 242 257 259 257 262 260 242 236 238 241 263 280 289 297 309 309 312 314 316 320 321 323 321 320 318 315 312 311 313 313 313 315 318 320 324 327 326 320 321 316